SL-12 DEB, 44982

Orbit data source: Space-Track

SL-12 DEB, 44982 is space debris in HEO originally from a launch on Mon, 25 Dec 2006 UTC launched from the Tyuratam Missile And Space Complex (TTMTR). Debris objects in space refer to the collection of defunct objects orbiting the Earth. Examples of debris include non-operational satellites, rocket bodies, and fragments generated from explosions, collisions, or faulty payload assembly.

Loading next visibility...
Identifier
44982, 2006-062S
Orbit
HEO
Country
Flag of CISCIS
Related business
Manufacturer
RKKE
Mission
Spacecraft
Bus & Motor
Unknown
Mass
Unknown
Launch date (UTC)
2006-12-25 (19 years ago)
Launch vehicle
Unknown
Launch site
Tyuratam Missile And Space Complex (TTMTR)
Object type
Payload
Rocket body
Debris
Shape & HBR
Unknown
Radar Cross Section
Medium (>0.1 m² and <1 m²)

Expand to show TLE details & history
Last TLE update: 1 week ago

TLE from 1 week ago
0 SL-12 DEB
1 44982U 06062S   25251.92892671  .00000032  00000-0 -26973-3 0  9996
2 44982  64.9412 101.7529 5532905 281.6890  23.9833  4.28191869 91515
Epoch: 2025-09-08T22:17Z
TLE epoch observation values (Epoch: 2025-09-08T22:17:39.267Z)
Latitude
Longitude
139.11958°
Altitude
3,624.733 km
Speed
7.405 km/s
True Right ascension
06h 47m 02s
True Declination
0° 00' 00"
Sunlit
Object was in daylight at epoch
Visualization orbit readout
Latitude
Unknown
Longitude
Unknown
Altitude
Unknown
Speed
Unknown
Apparent Right ascension
Unknown
Apparent Declination
Unknown
Sunlit
N/A
Visualization observer readout
Local Sidereal Time
13:53:57
Azimuth
Unknown
Elevation
Unknown
Doppler factor
Unknown
Orbital elements
Apogee altitude
18,502.762 km
Perigee altitude
777.34 km
Semi-major axis
16,018.188 km
Eccentricity
0.55329
Inclination
64.9412°
RAAN
101.7529°
Arg. of periapsis
281.689°
True anomaly
78.43058°
Mean anomaly
23.9833°
Eccentric anomaly
47.26956°
Mean motion
1.07059 °/min
Orbital period
336.26 mins
BSTAR
-0.00026973
Loading maneuver chart data...
Computing Atmospheric mass density...
Loading historical data...
Loading historical data...
Loading historical data...
Loading historical data...
Loading historical data...
Loading historical data...
Loading historical data...

Documentation

Showing up to 5 results
|